Valentine, NE

9:37 AM CST on February 14, 2016 (GMT -0600)
Miller Field

Weather History for KVTN - May, 2014

Change the Weather History Date:

Sunday, May 11, 2014

  Actual Average Record
Temperature  
Mean Temperature 47 °F 56 °F  
Max Temperature 54 °F 70 °F 98 °F (1962)
Min Temperature 40 °F 43 °F 24 °F (1979)
Degree Days  
Heating Degree Days 18 10  
Month to date heating degree days 144 125  
Since 1 July heating degree days 7117 6808  
Cooling Degree Days 0 1  
Month to date cooling degree days 0 8  
Year to date cooling degree days 0 12  
Moisture  
Dew Point 41 °F    
Average Humidity 87    
Maximum Humidity 96    
Minimum Humidity 77    
Precipitation  
Precipitation 0.87 in 0.10 in 1.62 in (2004)
Month to date precipitation 1.49 1.02  
Year to date precipitation 5.69 5.05  
Snow  
Snow 0.00 in 0.00 in 2.00 in (1905)
Month to date snowfall 0.0 0.1  
Since 1 July snowfall 34.8 33.3  
Snow Depth 0.00 in    
Sea Level Pressure  
Sea Level Pressure 29.92 in    
Wind  
Wind Speed 19 mph (North)    
Max Wind Speed 29 mph    
Max Gust Speed 36 mph    
Visibility 7 miles    
Events Rain , Thunderstorm    
T = Trace of Precipitation, MM = Missing Value Source: NWS Daily Summary

Daily Weather History Graph

Daily Weather History Graph

Search for Another Location

Airport or City:

Trip Planner

Search our weather history database for the weather conditions in past years. The results will help you decide how hot, cold, wet, or windy it might be!

Date:

Astronomy

May. 11, 2014 Rise Set
Actual Time 6:23 AM CDT 8:54 PM CDT
Civil Twilight 5:51 AM CDT 9:26 PM CDT
Nautical Twilight 5:11 AM CDT 10:06 PM CDT
Astronomical Twilight 4:26 AM CDT 10:51 PM CDT
Moon 5:47 PM CDT (5/11) 4:34 AM CDT (5/11)
Length of Visible Light 15h 34m
Length of Day
14h 30m
Waxing Gibbous, 89% of the Moon is Illuminated
May 11
Waxing Gibbous
May 14
Full
May 21
Last Quarter
May 28
New
Jun 5
First Quarter

Hourly Weather History & Observations

Time (CDT) Temp. Windchill Dew Point Humidity Pressure Visibility Wind Dir Wind Speed Gust Speed Precip Events Conditions
12:52 AM 54.0 °F - 46.0 °F 75% 29.84 in 10.0 mi West 3.5 mph - N/A   Overcast
1:52 AM 53.1 °F - 48.0 °F 83% 29.85 in 7.0 mi NNW 3.5 mph - 0.02 in Rain Light Rain
2:52 AM 52.0 °F - 46.9 °F 83% 29.88 in 5.0 mi North 6.9 mph - 0.06 in Rain Rain
3:52 AM 46.0 °F 38.0 °F 43.0 °F 89% 29.89 in 7.0 mi North 21.9 mph 27.6 mph 0.20 in Rain Light Rain
4:29 AM 45.0 °F 40.1 °F 42.1 °F 90% 29.94 in 5.0 mi NE 9.2 mph - 0.03 in Rain Light Rain
4:52 AM 44.1 °F 37.7 °F 42.1 °F 93% 29.93 in 6.0 mi North 12.7 mph - 0.07 in Rain Light Rain
5:13 AM 44.1 °F 37.7 °F 42.1 °F 93% 29.92 in 5.0 mi North 12.7 mph - 0.03 in Rain Light Rain
5:52 AM 44.1 °F 37.7 °F 42.1 °F 93% 29.89 in 7.0 mi NNW 12.7 mph - 0.07 in Rain Light Rain
6:52 AM 44.1 °F 35.4 °F 41.0 °F 89% 29.85 in 10.0 mi North 21.9 mph 31.1 mph 0.04 in Rain Light Rain
7:52 AM 44.1 °F 36.8 °F 41.0 °F 89% 29.89 in 8.0 mi North 16.1 mph - 0.03 in Rain Light Rain
8:35 AM 44.1 °F 36.8 °F 41.0 °F 89% 29.90 in 10.0 mi North 16.1 mph 24.2 mph 0.00 in   Overcast
8:52 AM 44.1 °F 36.2 °F 41.0 °F 89% 29.91 in 10.0 mi North 18.4 mph 26.5 mph 0.00 in Rain Light Rain
8:59 AM 44.1 °F 35.9 °F 41.0 °F 89% 29.91 in 10.0 mi North 19.6 mph 25.3 mph 0.00 in Rain Light Rain
9:11 AM 44.1 °F 35.9 °F 41.0 °F 89% 29.92 in 10.0 mi North 19.6 mph 27.6 mph 0.00 in   Overcast
9:18 AM 44.1 °F 36.8 °F 41.0 °F 89% 29.92 in 10.0 mi NNW 16.1 mph 24.2 mph 0.00 in   Overcast
9:38 AM 43.0 °F 35.4 °F 39.9 °F 89% 29.93 in 10.0 mi North 16.1 mph 25.3 mph 0.00 in   Overcast
9:52 AM 43.0 °F 35.1 °F 39.9 °F 89% 29.95 in 10.0 mi North 17.3 mph 24.2 mph 0.00 in Rain Light Rain
10:44 AM 43.0 °F 35.4 °F 41.0 °F 93% 29.93 in 9.0 mi NNW 16.1 mph 24.2 mph 0.01 in Rain Light Rain
10:52 AM 43.0 °F 35.7 °F 41.0 °F 93% 29.94 in 10.0 mi North 15.0 mph 23.0 mph 0.01 in   Overcast
11:16 AM 43.0 °F 35.7 °F 39.9 °F 89% 29.92 in 10.0 mi North 15.0 mph 24.2 mph N/A   Overcast
11:43 AM 43.0 °F 36.0 °F 41.0 °F 93% 29.92 in 4.0 mi NNW 13.8 mph 24.2 mph 0.02 in Rain Light Rain
11:52 AM 43.0 °F 34.5 °F 39.9 °F 89% 29.95 in 3.0 mi NNW 19.6 mph 25.3 mph 0.04 in Rain Rain
12:10 PM 43.0 °F 35.4 °F 41.0 °F 93% 29.91 in 3.0 mi NNW 16.1 mph - 0.04 in Rain Light Rain
12:20 PM 43.0 °F 35.4 °F 39.9 °F 89% 29.91 in 4.0 mi North 16.1 mph 27.6 mph 0.05 in Rain Light Rain
12:52 PM 42.8 °F 34.0 °F 41.0 °F 93% 29.88 in 7.0 mi North 20.7 mph 29.9 mph N/A Rain Light Rain
1:52 PM 44.1 °F 35.0 °F 41.0 °F 89% 29.87 in 4.0 mi North 24.2 mph 32.2 mph 0.02 in Rain Light Rain
2:13 PM 44.1 °F 34.4 °F 41.0 °F 89% 29.85 in 4.0 mi North 27.6 mph 35.7 mph 0.01 in Rain , Thunderstorm Rain
2:24 PM 44.1 °F 35.4 °F 42.1 °F 93% 29.84 in 2.5 mi North 21.9 mph 32.2 mph 0.04 in Rain , Thunderstorm Rain
2:30 PM 44.1 °F 35.7 °F 42.1 °F 93% 29.85 in 2.5 mi North 20.7 mph 31.1 mph 0.05 in Rain Rain
2:42 PM 44.1 °F 35.4 °F 42.1 °F 93% 29.86 in 4.0 mi North 21.9 mph 29.9 mph 0.07 in Rain , Thunderstorm Light Rain
2:52 PM 44.1 °F 35.9 °F 42.1 °F 93% 29.91 in 7.0 mi North 19.6 mph 26.5 mph 0.08 in Rain , Thunderstorm Light Thunderstorms and Rain
3:03 PM 44.1 °F 35.4 °F 42.1 °F 93% 29.85 in 1.8 mi North 21.9 mph 32.2 mph 0.05 in Rain , Thunderstorm Heavy Thunderstorms and Rain
3:08 PM 44.6 °F 37.8 °F 42.8 °F 93% 29.88 in 2.0 mi North 15.0 mph 32.2 mph N/A Rain , Thunderstorm Light Rain
3:17 PM 44.1 °F 36.2 °F 42.1 °F 93% 29.89 in 4.0 mi North 18.4 mph 24.2 mph 0.07 in Rain , Thunderstorm Rain
3:27 PM 45.0 °F 36.9 °F 42.1 °F 90% 29.88 in 2.5 mi North 20.7 mph 28.8 mph 0.09 in Rain Rain
3:42 PM 45.0 °F 37.9 °F 42.1 °F 90% 29.89 in 4.0 mi North 16.1 mph 26.5 mph 0.12 in Rain Light Rain
3:52 PM 44.6 °F 36.9 °F 42.8 °F 93% 29.89 in 4.0 mi North 18.4 mph 29.9 mph N/A Rain Light Rain
4:09 PM 45.0 °F 37.4 °F 43.0 °F 93% 29.88 in 2.5 mi North 18.4 mph 27.6 mph 0.01 in Rain Light Rain
4:35 PM 45.0 °F 37.1 °F 43.0 °F 93% 29.88 in 3.0 mi North 19.6 mph 25.3 mph 0.03 in Rain Light Rain
4:52 PM 45.0 °F 37.1 °F 43.0 °F 93% 29.90 in 6.0 mi North 19.6 mph 27.6 mph 0.03 in   Overcast
5:06 PM 45.0 °F 36.2 °F 43.0 °F 93% 29.88 in 6.0 mi North 24.2 mph 33.4 mph N/A   Overcast
5:14 PM 45.0 °F 36.6 °F 43.0 °F 93% 29.87 in 6.0 mi North 21.9 mph 29.9 mph 0.00 in Rain Light Rain
5:23 PM 45.0 °F 36.6 °F 42.1 °F 90% 29.87 in 7.0 mi North 21.9 mph 33.4 mph 0.00 in   Overcast
5:52 PM 45.0 °F 37.1 °F 42.1 °F 90% 29.91 in 6.0 mi North 19.6 mph 31.1 mph 0.00 in   Overcast
6:36 PM 43.0 °F 34.0 °F 39.9 °F 89% 29.93 in 5.0 mi NNW 21.9 mph 29.9 mph 0.00 in Rain Light Rain
6:52 PM 43.0 °F 34.5 °F 39.9 °F 89% 29.97 in 4.0 mi NNW 19.6 mph 27.6 mph 0.01 in Rain Light Rain
7:22 PM 42.1 °F 32.3 °F 39.0 °F 89% 29.95 in 2.5 mi North 24.2 mph 31.1 mph 0.00 in Rain Light Rain
7:33 PM 42.1 °F 33.3 °F 39.0 °F 89% 29.94 in 3.0 mi North 19.6 mph 31.1 mph 0.00 in Rain Light Rain
7:52 PM 42.1 °F 32.8 °F 39.0 °F 89% 29.97 in 6.0 mi North 21.9 mph 29.9 mph 0.01 in Rain Light Rain
8:18 PM 42.1 °F 33.6 °F 39.0 °F 89% 29.95 in 9.0 mi North 18.4 mph 26.5 mph 0.00 in   Overcast
8:36 PM 42.1 °F 32.6 °F 37.9 °F 85% 29.96 in 10.0 mi North 23.0 mph 31.1 mph 0.00 in   Overcast
8:52 PM 42.1 °F 32.8 °F 37.9 °F 85% 30.00 in 10.0 mi North 21.9 mph 31.1 mph 0.00 in   Overcast
9:03 PM 42.1 °F 33.1 °F 37.9 °F 85% 29.96 in 10.0 mi North 20.7 mph 31.1 mph N/A   Overcast
9:32 PM 42.8 °F 33.8 °F 37.4 °F 81% 29.99 in 10.0 mi North 21.9 mph 28.8 mph N/A   Overcast
9:52 PM 42.1 °F 33.1 °F 37.9 °F 85% 30.01 in 10.0 mi North 20.7 mph 28.8 mph N/A   Overcast
10:28 PM 42.1 °F 34.9 °F 39.0 °F 89% 29.99 in 10.0 mi North 13.8 mph 25.3 mph N/A   Overcast
10:40 PM 42.1 °F 34.2 °F 39.0 °F 89% 29.98 in 10.0 mi NNW 16.1 mph 29.9 mph N/A   Overcast
10:52 PM 41.0 °F 31.4 °F 37.9 °F 89% 30.01 in 10.0 mi North 21.9 mph 32.2 mph N/A   Overcast
11:07 PM 41.0 °F 31.1 °F 37.9 °F 89% 29.98 in 10.0 mi North 23.0 mph 29.9 mph N/A   Overcast
11:33 PM 41.0 °F 32.5 °F 37.0 °F 86% 29.99 in 10.0 mi North 17.3 mph 31.1 mph N/A   Overcast
11:43 PM 41.0 °F 31.9 °F 37.0 °F 86% 30.00 in 10.0 mi North 19.6 mph 34.5 mph N/A   Overcast
11:52 PM 41.0 °F 30.9 °F 37.0 °F 86% 30.04 in 10.0 mi North 24.2 mph 32.2 mph N/A   Overcast